Total_Precipitation_Accumulation
1.55 1.56 1.51 1.54 1.64 1.62 1.56 1.56 1.61 1.60 1.59 1.67 1.79 1.91 1.98 2.02 2.03 2.06 2.02 1.96 1.94 1.90 1.84 1.79 1.74 1.70 1.74 1.70 1.72 1.80 1.89 1.96 1.91 1.41 1.16 1.17 1.29 1.33 1.35 1.28 1.24 1.27 1.29
1.41 1.49 1.42 1.39 1.52 1.57 1.50 1.45 1.47 1.49 1.40 1.40 1.47 1.55 1.63 1.67 1.71 1.75 1.77 1.76 1.75 1.75 1.72 1.71 1.66 1.63 1.62 1.63 1.68 1.71 1.75 1.80 1.84 1.63 1.31 1.21 1.22 1.22 1.23 1.24 1.20 1.17 1.14
1.32 1.36 1.33 1.29 1.34 1.40 1.44 1.42 1.39 1.43 1.40 1.31 1.28 1.32 1.36 1.40 1.44 1.46 1.48 1.51 1.52 1.52 1.56 1.59 1.58 1.63 1.67 1.62 1.60 1.58 1.55 1.56 1.63 1.65 1.43 1.21 1.16 1.14 1.19 1.19 1.14 1.10 1.04
1.21 1.22 1.19 1.19 1.19 1.19 1.22 1.25 1.24 1.24 1.30 1.32 1.23 1.16 1.19 1.23 1.28 1.33 1.35 1.37 1.39 1.43 1.46 1.49 1.51 1.54 1.55 1.56 1.60 1.58 1.54 1.53 1.53 1.58 1.52 1.38 1.30 1.23 1.27 1.29 1.26 1.16 1.09
1.16 1.19 1.17 1.14 1.10 1.08 1.09 1.06 1.07 1.10 1.16 1.23 1.22 1.15 1.10 1.13 1.19 1.24 1.27 1.31 1.32 1.35 1.37 1.39 1.44 1.56 1.62 1.59 1.58 1.57 1.62 1.72 1.73 1.73 1.63 1.46 1.33 1.29 1.26 1.18 1.23 1.21 1.18
1.03 1.10 1.12 1.10 1.07 1.05 1.03 1.02 0.98 1.01 1.08 1.17 1.22 1.22 1.20 1.21 1.44 1.43 1.34 1.32 1.34 1.33 1.32 1.28 1.30 1.38 1.40 1.47 1.50 1.51 1.62 1.78 1.90 1.90 1.71 1.43 1.20 1.11 1.09 1.15 1.28 1.37 1.31
0.84 0.93 0.98 0.99 1.02 1.02 1.01 1.04 1.09 1.11 1.13 1.22 1.28 1.32 1.32 1.38 1.53 1.44 1.43 1.30 1.27 1.27 1.24 1.21 1.18 1.17 1.22 1.12 1.22 1.30 1.34 1.49 1.60 1.56 1.48 1.23 1.09 1.07 1.23 1.36 1.33 1.32 1.16
0.87 0.90 0.90 0.94 1.00 1.04 1.11 1.18 1.26 1.31 1.33 1.38 1.44 1.46 1.46 1.47 1.50 1.42 1.44 1.25 1.16 1.11 1.04 0.98 0.97 0.94 0.97 1.05 1.10 1.18 1.11 1.08 1.11 1.10 1.10 1.06 1.05 1.12 1.33 1.56 1.59 1.56 1.29
0.90 0.96 0.97 1.04 1.13 1.18 1.28 1.35 1.37 1.44 1.43 1.39 1.38 1.37 1.35 1.32 1.34 1.29 1.27 1.12 1.05 0.98 0.90 0.84 0.84 0.81 0.96 1.14 1.16 1.20 1.03 0.92 0.99 1.10 1.19 1.22 1.33 1.39 1.45 1.71 1.89 1.99 1.76
1.00 1.10 1.11 1.14 1.21 1.24 1.27 1.25 1.22 1.22 1.19 1.14 1.10 1.06 1.04 1.01 1.05 1.06 1.09 1.03 0.98 0.88 0.81 0.78 0.86 0.85 1.02 1.17 1.11 1.14 1.09 0.91 0.90 0.98 1.04 1.09 1.10 1.18 1.36 1.41 1.62 1.97 1.82
1.12 1.18 1.16 1.11 1.13 1.12 1.08 1.02 0.95 0.90 0.86 0.83 0.81 0.78 0.75 0.75 0.79 0.84 0.94 0.98 1.03 0.98 0.87 0.78 0.76 0.94 1.06 1.15 1.12 1.05 1.09 1.11 1.09 1.10 1.07 1.04 1.05 1.11 1.15 1.15 1.28 1.72 2.00
1.03 1.02 0.97 0.87 0.83 0.80 0.79 0.81 0.79 0.75 0.77 0.75 0.72 0.70 0.64 0.62 0.66 0.71 0.81 0.94 1.03 1.04 0.94 0.80 0.79 0.99 1.04 1.06 1.05 1.08 1.18 1.20 1.12 1.20 1.22 1.16 1.09 1.04 1.02 1.03 1.09 1.22 1.41
0.76 0.77 0.76 0.72 0.69 0.69 0.69 0.72 0.76 0.75 0.75 0.73 0.70 0.72 0.70 0.63 0.65 0.74 0.80 0.91 0.99 0.98 0.92 0.94 0.98 1.02 1.00 0.94 0.98 1.07 1.09 1.04 1.08 1.16 1.16 1.09 1.03 1.01 1.03 1.11 1.16 1.21 1.26
0.65 0.69 0.71 0.72 0.68 0.68 0.69 0.69 0.74 0.78 0.79 0.77 0.74 0.74 0.71 0.68 0.67 0.73 0.84 0.91 0.98 1.00 0.99 0.96 0.93 0.92 0.95 0.94 0.92 0.93 0.94 1.00 1.12 1.16 1.11 1.07 1.08 1.15 1.21 1.23 1.30 1.32 1.43
0.66 0.71 0.75 0.77 0.73 0.71 0.71 0.72 0.76 0.80 0.89 0.99 0.96 0.89 0.89 0.85 0.79 0.94 1.06 1.06 1.09 1.13 1.16 1.05 0.93 0.88 0.91 0.90 0.88 0.87 0.91 1.01 1.12 1.12 1.17 1.21 1.21 1.23 1.24 1.25 1.37 1.43 1.48
0.69 0.70 0.74 0.77 0.78 0.76 0.71 0.72 0.76 0.79 0.83 0.86 0.89 0.92 0.88 0.89 0.93 1.00 1.04 1.07 1.14 1.22 1.28 1.12 0.93 0.86 0.87 0.87 0.88 0.90 0.92 0.99 1.07 1.17 1.25 1.30 1.34 1.33 1.29 1.24 1.33 1.47 1.47
0.74 0.74 0.75 0.76 0.78 0.79 0.75 0.72 0.76 0.79 0.82 0.81 0.82 0.85 0.87 0.93 0.96 0.97 1.01 1.07 1.14 1.22 1.22 1.01 0.86 0.81 0.81 0.85 0.90 0.94 0.95 0.94 1.05 1.23 1.34 1.40 1.45 1.43 1.40 1.38 1.35 1.39 1.37
0.70 0.74 0.76 0.75 0.79 0.83 0.83 0.80 0.76 0.76 0.76 0.74 0.75 0.83 0.88 0.92 0.95 0.97 1.02 1.09 1.09 1.07 0.98 0.91 0.88 0.86 0.89 0.94 0.97 1.00 1.02 1.05 1.12 1.19 1.30 1.40 1.53 1.60 1.53 1.43 1.38 1.39 1.42
0.67 0.73 0.76 0.77 0.79 0.84 0.88 0.90 0.86 0.81 0.78 0.75 0.72 0.78 0.88 0.94 0.97 1.00 1.00 0.99 0.94 0.89 0.86 0.86 0.89 0.94 0.99 1.02 1.04 1.08 1.13 1.17 1.17 1.24 1.28 1.35 1.50 1.66 1.59 1.42 1.43 1.43 1.51
0.65 0.78 0.84 0.84 0.84 0.86 0.87 0.88 0.89 0.85 0.82 0.77 0.75 0.81 0.91 0.99 0.96 0.92 0.92 0.90 0.86 0.82 0.82 0.89 0.94 1.02 1.11 1.16 1.18 1.18 1.20 1.17 1.20 1.28 1.30 1.32 1.40 1.58 1.62 1.52 1.51 1.54 1.47
0.61 0.69 0.78 0.77 0.78 0.83 0.87 0.89 0.92 0.91 0.86 0.79 0.78 0.87 1.08 1.13 1.00 0.89 0.89 0.94 0.96 0.94 0.93 0.96 0.98 1.05 1.13 1.20 1.24 1.24 1.22 1.16 1.17 1.30 1.37 1.39 1.44 1.51 1.47 1.54 1.55 1.56 1.58
0.57 0.62 0.68 0.73 0.76 0.82 0.90 0.91 0.90 0.90 0.87 0.82 0.79 0.83 0.96 0.95 0.88 0.85 0.87 0.92 0.95 0.99 1.03 1.11 1.09 1.03 1.14 1.30 1.40 1.43 1.30 1.14 1.12 1.27 1.39 1.40 1.44 1.50 1.54 1.61 1.60 1.60 1.59
0.56 0.59 0.63 0.66 0.72 0.80 0.83 0.80 0.82 0.84 0.85 0.83 0.81 0.82 0.84 0.84 0.81 0.80 0.83 0.87 0.91 0.94 0.96 1.05 1.11 1.03 1.01 1.17 1.36 1.62 1.66 1.40 1.27 1.45 1.74 1.74 1.62 1.62 1.66 1.65 1.54 1.54 1.46
0.55 0.59 0.62 0.65 0.69 0.74 0.76 0.76 0.76 0.78 0.79 0.79 0.80 0.82 0.82 0.83 0.82 0.81 0.84 0.86 0.89 0.91 0.93 1.00 1.05 1.04 1.03 1.13 1.23 1.34 1.48 1.62 1.92 2.14 2.23 2.27 1.95 1.68 1.63 1.59 1.47 1.43 1.43
0.55 0.58 0.63 0.67 0.71 0.72 0.73 0.73 0.72 0.72 0.73 0.74 0.76 0.78 0.78 0.79 0.79 0.79 0.80 0.83 0.85 0.86 0.85 0.90 0.98 1.01 1.00 1.04 1.11 1.17 1.28 1.57 2.00 2.31 2.34 2.21 1.92 1.66 1.62 1.57 1.48 1.45 1.43
0.58 0.60 0.64 0.68 0.71 0.72 0.73 0.71 0.69 0.69 0.71 0.71 0.71 0.72 0.74 0.75 0.74 0.74 0.76 0.79 0.81 0.80 0.79 0.80 0.85 0.93 0.96 0.97 0.95 1.05 1.26 1.42 1.52 1.67 2.05 2.21 1.97 1.66 1.61 1.66 1.52 1.47 1.44